Regional Weather Roundup
Issued by NWS Grand Forks, ND

Home | Current Version | Previous Version | Text Only | Print | Product List | Glossary Off
Versions: 1 2 3 4 5 6 7 8 9 10 11 12 13 14 15 16 17 18 19 20 21 22 23 24 25 26 27 28 29 30 31 32 33 34 35 36 37 38 39 40 41 42 43 44 45 46 47 48 49 50

000
ASUS43 KFGF 290010
RWRFGF
PRAIRIE TO PINES  WEATHER ROUNDUP
NATIONAL WEATHER SERVICE EASTERN NORTH DAKOTA/GRAND FORKS ND
700 PM CDT THU APR 28 2016

 **SATELLITE DATA USED TO AUGMENT SKY COVER AT AUTOMATED STATIONS**
 *****  WEATHER ACROSS EASTERN NORTH DAKOTA  *****

CITY           SKY/WX    TMP DP  RH WIND       PRES   REMARKS
GRAND FORKS    MOSUNNY   56  25  30 NE13      30.12S
6HR MIN TEMP:  55; 6HR MAX TEMP:  58;

GRAND FRKS AFB MOSUNNY   55  23  28 NE12      30.13S
DEVILS LAKE    MOSUNNY   54  21  27 E12       30.14S
6HR MIN TEMP:  52; 6HR MAX TEMP:  55;

FARGO          CLOUDY    59  22  24 E8        30.06S
WAHPETON ARPT  CLOUDY    52  30  43 S12       30.08S
$$

 ***** WEATHER ACROSS CENTRAL AND WESTERN NORTH DAKOTA  *****

CITY           SKY/WX    TMP DP  RH WIND       PRES   REMARKS
BISMARCK       CLOUDY    54  24  31 E9        30.10R
6HR MIN TEMP:  53; 6HR MAX TEMP:  57;

MINOT          MOSUNNY   59  12  15 E12       30.14S
6HR MIN TEMP:  58; 6HR MAX TEMP:  61;

JAMESTOWN      CLOUDY    53  23  31 E13       30.09S
6HR MIN TEMP:  53; 6HR MAX TEMP:  57;

MINOT AFB      PTSUNNY   55  15  20 SE12      30.13S
GARRISON         N/A     54  17  23 E12       30.12R
WILLISTON      PTSUNNY   56  17  21 E16       30.13S
6HR MIN TEMP:  53; 6HR MAX TEMP:  58;

DICKINSON      CLOUDY    50  25  37 NE14      30.08S
6HR MIN TEMP:  44; 6HR MAX TEMP:  51;

HETTINGER      CLOUDY    46  33  60 N6        30.11S
6HR MIN TEMP:  37; 6HR MAX TEMP:  47;

$$

 *****  OTHER AIRPORT OBSERVATIONS IN OUR AREA  *****

CITY           SKY/WX    TMP DP  RH WIND       PRES   REMARKS
WALHALLA       FAIR      55  21  26 NE15      30.15S
GRAFTON AIRPOR FAIR      57  27  30 NE7G16    30.15S
VALLEY CITY AR CLOUDY    50  25  37 NE12      30.11S
CANDO          FAIR      55  18  22 E12       30.16S
CAVALIER APRT  FAIR      57  25  28 NE10      30.14S
GWINNER        FAIR      54  32  43 E9        30.08R
SHEYENNE NWR     N/A     56  22  26 E7        29.95S
ROLLA          FAIR      54  12  19 NE17      30.17S
 ***** THE ABOVE OBSERVATIONS ARE NON NWS ARE NOT QUALITY
       CONTROLLED AND MAY MIS-REPORT RAIN FOR SNOW...
$$

  *****  WEATHER ACROSS NORTHERN MINNESOTA  *****

CITY           SKY/WX    TMP DP  RH WIND       PRES   REMARKS
FLAG ISLAND    NOT AVBL
WARROAD        MOSUNNY   48  27  43 NE6       30.16S
ROSEAU         SUNNY     54  28  37 E15       30.15S
HALLOCK        SUNNY     57  19  23 SE9       30.13S
THF RVR FALLS  MOSUNNY   55  25  30 NE12      30.13S
6HR MIN TEMP:  52; 6HR MAX TEMP:  55;

BAUDETTE       SUNNY     52  23  32 N12       30.12S
6HR MIN TEMP:  52; 6HR MAX TEMP:  58;

WASKISH        SUNNY     54  28  37 E6        30.11F
CROOKSTON      MOSUNNY   55  25  30 NE14G21   30.12R
STEPHEN NDAWN    N/A     55  27  33 E12         N/A
GREENBUSH NDAW   N/A     54  27  35 E9          N/A
$$
  *****  WEATHER ACROSS CENTRAL AND WEST MINNESOTA  *****

CITY           SKY/WX    TMP DP  RH WIND       PRES   REMARKS
FOSSTON        MOSUNNY   54  27  35 NE9       30.10S
BEMIDJI        CLOUDY    54  27  35 N7        30.09S
PARK RAPIDS    CLOUDY    54  23  30 NE7       30.06S
6HR MIN TEMP:  51; 6HR MAX TEMP:  58;

ELBOW LAKE     CLOUDY    46  39  76 W7        30.08S
WADENA         CLOUDY    54  27  35 CALM      30.05R
DETROIT LAKES  CLOUDY    54  23  30 E10       30.08R
MOORHEAD       CLOUDY    57  23  26 E5        30.08R
FERGUS FALLS   CLOUDY    50  32  50 SW8       30.05S
MORRIS MN      CLOUDY    45  39  81 E8        30.07S
STAPLES        MOSUNNY   50  34  53 S8        30.06R
$$
  *****  WEATHER ELSEWHERE ACROSS MINNESOTA  *****

CITY           SKY/WX    TMP DP  RH WIND       PRES   REMARKS
DULUTH         PTSUNNY   39  24  55 E13       30.11R
6HR MIN TEMP:  39; 6HR MAX TEMP:  49;

INTRNTL FALLS  SUNNY     53  26  35 NE10      30.12R
6HR MIN TEMP:  49; 6HR MAX TEMP:  55;

ELY            PTSUNNY   52  25  35 N3        30.10R
CLOQUET        MOSUNNY   43  21  42 E14G20    30.10S
WHEATON        CLOUDY    46  39  76 S3        30.11S
BRAINERD       CLOUDY    51  20  29 E7        30.07R
6HR MIN TEMP:  50; 6HR MAX TEMP:  58;

HIBBING        CLOUDY    52  26  36 NE12      30.07R
6HR MIN TEMP:  50; 6HR MAX TEMP:  55;

ALEXANDRIA     CLOUDY    45  36  70 S7        30.08R
6HR MIN TEMP:  45; 6HR MAX TEMP:  49;

SAINT CLOUD    LGT RAIN  42  38  85 CALM      30.08R FOG
6HR MIN TEMP:  41; 6HR MAX TEMP:  45; 6HR PCP:  0.12;

MINNEAPOLIS    LGT RAIN  40  36  86 N5        30.08R
6HR MIN TEMP:  40; 6HR MAX TEMP:  42; 6HR PCP:  0.24;

$$

  *****  WEATHER ACROSS SOUTH DAKOTA  *****

CITY           SKY/WX    TMP DP  RH WIND       PRES   REMARKS
SIOUX FALLS    CLOUDY    41  35  79 NE8       30.06R
6HR MIN TEMP:  40; 6HR MAX TEMP:  43;

BROOKINGS      CLOUDY    36  34  92 NE8       30.07R
WATERTOWN      CLOUDY    38  35  89 NE9       30.07R FOG
6HR MIN TEMP:  34; 6HR MAX TEMP:  38; 6HR PCP:  0.11;

HURON          CLOUDY    41  34  76 E8        30.09R
6HR MIN TEMP:  39; 6HR MAX TEMP:  44; 6HR PCP:  0.02;

SISSETON         N/A     44  38  79 S8        30.09R
ABERDEEN       CLOUDY    51  34  52 E13       30.07R
6HR MIN TEMP:  47; 6HR MAX TEMP:  53;

MITCHELL       CLOUDY    43  38  82 NE8       30.08R
PIERRE         CLOUDY    47  36  65 NE9       30.07R
6HR MIN TEMP:  44; 6HR MAX TEMP:  48;

MOBRIDGE       CLOUDY    52  33  48 E9        30.05R
RAPID CITY     CLOUDY    38  34  85 NE10      30.09R
6HR MIN TEMP:  37; 6HR MAX TEMP:  42;

$$

  *****  SOME WEATHER IN NEARBY STATES *****

CITY           SKY/WX    TMP DP  RH WIND       PRES   REMARKS
GLASGOW MT     MOSUNNY   54  28  36 SE14      30.11F
6HR MIN TEMP:  50; 6HR MAX TEMP:  55;

GREAT FALLS MT CLOUDY    42  33  70 E15       30.07F
6HR MIN TEMP:  36; 6HR MAX TEMP:  43; 6HR PCP:  0.01;

CHEYENNE WY    CLOUDY    35  32  88 S6        29.98R
6HR MIN TEMP:  32; 6HR MAX TEMP:  36; 6HR PCP:  0.09;

SCOTTSBLUFF NE LGT RAIN  37  34  89 E5        30.05S
6HR MIN TEMP:  36; 6HR MAX TEMP:  45; 6HR PCP:  0.07;

OMAHA NE       CLOUDY    50  42  74 N13       30.02F
6HR MIN TEMP:  49; 6HR MAX TEMP:  52;

DES MOINES IA  DRIZZLE   51  47  86 NW13      29.98R FOG
6HR MIN TEMP:  51; 6HR MAX TEMP:  60; 6HR PCP:  0.01;

DAVENPORT IA   CLOUDY    53  49  86 CALM      29.95S
6HR MIN TEMP:  50; 6HR MAX TEMP:  54; 6HR PCP:  0.02;

CHICAGO IL     CLOUDY    44  39  82 NE7       29.96R
6HR MIN TEMP:  44; 6HR MAX TEMP:  50;

EAU CLAIRE WI  LGT RAIN  41  37  86 SE7       30.07R FOG
6HR MIN TEMP:  41; 6HR MAX TEMP:  43; 6HR PCP:  0.17;

LA CROSSE WI   LGT RAIN  42  39  89 E6        30.03R
6HR MIN TEMP:  42; 6HR MAX TEMP:  43; 6HR PCP:  0.02;

$$

  *****  SOME NATIONAL WEATHER *****

CITY           SKY/WX    TMP DP  RH WIND       PRES   REMARKS
LA GUARDIA NY  LGT RAIN  50  31  48 S6        30.04S
6HR MIN TEMP:  50; 6HR MAX TEMP:  56; 6HR PCP: TRACE;

RALEIGH NC     TSTM      69  64  84 N5G16     29.87R
6HR MIN TEMP:  67; 6HR MAX TEMP:  85; 6HR PCP:  0.17;

ATLANTA GA     PTCLDY    80  55  42 SW8       29.94R
6HR MIN TEMP:  80; 6HR MAX TEMP:  86;

NEW ORLEANS LA CLOUDY    80  74  81 SE16      29.92R
6HR MIN TEMP:  72; 6HR MAX TEMP:  81; 6HR PCP:  0.40;

OKLAHOMA CITY  CLOUDY    72  51  47 E14       29.85R
6HR MIN TEMP:  69; 6HR MAX TEMP:  75;

ALBUQUERQUE NM PTSUNNY   71   9   9 S21G29    29.68S
6HR MIN TEMP:  68; 6HR MAX TEMP:  75;

SALT LAKE CITY CLOUDY    55  34  45 E15       29.76R
6HR MIN TEMP:  50; 6HR MAX TEMP:  58;

LOS ANGELES CA MOSUNNY   63  50  62 SW9       29.85F
6HR MIN TEMP:  62; 6HR MAX TEMP:  65;

BOISE ID       SUNNY    C1F1C2F2C3F3C4F4C5F5C6F6C7F7C8F8C9F9CaFaCbFbCcFcCd!



USA.gov is the U.S. government's official web portal to all federal, state and local government web resources and services.